{"data":{"norad_id":59411,"intl_designator":"2024-064P","name":"STARLINK-31483","alt_names":[],"object_type":"PAYLOAD","status":"ACTIVE","operator":null,"country":"US","launch_date":"2024-04-05","launch_site_code":"AFETR","launch_vehicle":null,"mission":null,"orbit_class":"UNKNOWN","rcs_meters":null,"size_class":null,"mass_kg":null,"dimensions":null,"purposes":["comms"],"wikipedia_slug":null,"has_3d_model":false,"image_url":null,"decayed_at":null,"tle_current":{"epoch":"2026-09-21T15:32:51.650592Z","epoch_age_seconds":66425,"freshness":"FRESH","line1":"1 59411U 24064P   26264.64782003  .00000794  00000+0  38355-4 0  9993","line2":"2 59411  43.0022  29.6240 0000849 260.5485  99.5271 15.27582975139194","mean_motion":15.27582975,"eccentricity":8.49e-5,"inclination_deg":43.0022,"raan_deg":29.624,"arg_perigee_deg":260.5485,"mean_anomaly_deg":99.5271,"bstar":3.8355e-5,"rev_number":13919,"period_min":94.266565127174,"perigee_km":482.45767389061,"apogee_km":483.62270177711,"semimajor_km":6861.1771878339,"source":"CELESTRAK","updated_at":"2026-09-22T09:00:48.916214Z"}}}